Regional Weather Roundup
Issued by NWS Kansas City/Pleasant Hill, MO

Home | Current Version | Previous Version | Graphics & Text | Print | Product List | Glossary Off
Versions: 1 2 3 4 5 6 7 8 9 10 11 12 13 14 15 16 17 18 19 20 21 22 23 24 25 26 27 28 29 30 31 32 33 34 35 36 37 38 39 40 41 42 43 44 45 46 47 48 49 50

000
ASUS43 KEAX 070610
RWREAX

WEATHER ROUNDUP FOR EASTERN KANSAS AND NORTHWEST MISSOURI
NATIONAL WEATHER SERVICE KANSAS CITY/PLEASANT HILL MO
1200 AM CST SUN FEB 07 2016

KSZ040-057-103>105-MOZ028-029-037-043-070700-
...KANSAS CITY METROPOLITAN AREA...

CITY           SKY/WX    TMP DP  RH WIND       PRES   REMARKS
K.C. INTL      PTCLDY    40  28  62 SW14      30.07S WCI  32
6HR MIN TEMP:  38; 6HR MAX TEMP:  42;

K.C. DOWNTOWN  PTCLDY    43  27  53 SW14      30.08F
6HR MIN TEMP:  41; 6HR MAX TEMP:  46;

LEES SUMMIT    PTCLDY    40  27  59 SW14      30.10R WCI  32
6HR MIN TEMP:  40; 6HR MAX TEMP:  45;

OLATHE - IXD   PTCLDY    39  27  62 S18G24    30.09F WCI  30
6HR MIN TEMP:  36; 6HR MAX TEMP:  41;

OLATHE - OJC   PTCLDY    37  27  67 S12       30.09S WCI  29
6HR MIN TEMP:  37; 6HR MAX TEMP:  43;

LAWRENCE       PTCLDY    40  26  57 SW9       30.09F WCI  34

$$

MOZ001>008-011>017-020>025-030>033-038>040-044>046-053-054-070700-
...NORTHERN AND CENTRAL MISSOURI...

CITY           SKY/WX    TMP DP  RH WIND       PRES   REMARKS
ST. JOSEPH     PTCLDY    38  27  64 S14       30.04F WCI  30
6HR MIN TEMP:  35; 6HR MAX TEMP:  42;

MOSBY            N/A     41  28  60 S5        30.09R
WARRENSBURG    CLOUDY    37  30  75 S10       30.11S WCI  30
WHITEMAN AFB   CLOUDY    40  28  62 W12       30.12R WCI  33
6HR MIN TEMP:  33; 6HR MAX TEMP:  43;

CLINTON          N/A     39  32  75 SW10      30.14S WCI  32
SEDALIA        CLOUDY    41  28  60 SW12      30.13F WCI  34
6HR MIN TEMP:  39; 6HR MAX TEMP:  44;

WARSAW         NOT AVBL
CHILLICOTHE      N/A     38  29  70 S8        30.08S WCI  32
6HR MIN TEMP:  37; 6HR MAX TEMP:  44;

KIRKSVILLE     CLOUDY    38  28  67 SW10      30.07S WCI  31
6HR MIN TEMP:  34; 6HR MAX TEMP:  41;


$$

MOZ041-047>049-056>058-063>065-088>090-097-070700-
...EASTERN AND SOUTHERN MISSOURI...

CITY           SKY/WX    TMP DP  RH WIND       PRES   REMARKS
ST. LOUIS INTL PTCLDY    43  24  47 SW9       30.16S
6HR MIN TEMP:  41; 6HR MAX TEMP:  50;

SPIRIT OF STL  CLEAR     30  27  88 CALM      30.15F
COLUMBIA       CLOUDY    37  28  70 S12       30.12F WCI  29
JEFFERSON CITY CLEAR     41  29  62 SE3       30.15F
ROLLA          PTCLDY    34  25  69 SW8       30.15S WCI  27
OSAGE BEACH    CLEAR     37  28  70 S9        30.16F WCI  31
SPRINGFIELD    CLEAR     37  28  70 SW8       30.19R WCI  31
BRANSON        CLEAR     41  23  48 SW3       30.21F
JOPLIN         CLOUDY    35  27  72 S9        30.19F WCI  28
WEST PLAINS    CLEAR     39  15  37 SW7       30.21F WCI  34

$$

IAZ060-094-KSZ022-034>040-054-083-096-NEZ052-066-093-070700-
...KANSAS...SOUTHEAST NEBRASKA AND IOWA...

CITY           SKY/WX    TMP DP  RH WIND       PRES   REMARKS
TOPEKA         CLOUDY    41  26  55 S9G24     30.07F
6HR MIN TEMP:  40; 6HR MAX TEMP:  47;

MANHATTAN      CLEAR     38  27  64 SW10      30.04F WCI  31
EMPORIA        PTCLDY    39  25  57 S20       30.08F WCI  29
CHANUTE        CLEAR     37  28  70 SW13      30.15F WCI  29
WICHITA        PTCLDY    39  26  59 SW14      30.12F WCI  31
OMAHA          CLOUDY    39  28  64 VRB3G21   29.94R
LINCOLN        CLOUDY    37  28  70 W14       29.96R WCI  28
FALLS CITY     CLOUDY    37  27  67 S14       29.98F WCI  28
LAMONI         CLOUDY    36  28  73 S15       29.97F WCI  27
DES MOINES     CLOUDY    40  27  59 SW16      29.91F WCI  31

$$




USA.gov is the U.S. government's official web portal to all federal, state and local government web resources and services.